Location: Ahstedt
(52.2048°N, 10.1060°E)
Time: 19:00:31
(UTC+00:00)

Cosmos 2082 Rocket - Pass Details

Date: 12 April 2026
Orbit: 831 x 853 km, 71.0° (Epoch: 13 May)

Event Time Altitude Azimuth Distance (km) Brightness Sun altitude
Exits shadow 03:25:20 12° 231° (SW) 2,330 3.9 -9.9°
Maximum altitude 03:30:31 55° 307° (NW) 1,020 2.5 -9.2°
Drops below altitude 10° 03:36:09 10° 26° (NNE) 2,495 5.5 -8.5°
Sets 03:38:41 0° 31° (NNE) 3,435 6.4 -8.1°
